SCP
0 0 0 0 0 0 0 0 0 0 0 0 0 0 0 0 0 0 0 0 0 0 0 0 0 0 0 0 0 0 0 0 0 0 1 1 0 0 0 0 0 0 0 0
0 0 0 0 0 0 0 0 0 0 0 0 0 0 0 0 0 0 0 0 0 0 0 0 0 0 0 0 0 0 0 0 0 0 1 1 1 1 1 0 0 0 0 0
0 0 0 0 0 0 0 0 0 0 0 0 0 0 0 0 0 0 0 0 0 0 0 0 0 0 0 0 0 0 0 0 0 1 0 0 0 0 1 1 1 0 0 0
0 0 0 0 0 0 0 0 0 0 0 0 0 0 0 0 0 0 0 0 0 0 0 0 0 0 0 0 0 0 0 0 0 0 0 0 0 0 0 1 1 1 1 1
0 0 0 0 0 0 0 0 0 0 0 0 0 0 0 0 0 0 0 0 0 0 0 0 0 0 0 0 0 0 0 0 0 0 0 0 0 0 0 1 1 1 1 1
0 0 0 0 0 0 0 0 0 0 0 0 0 0 0 0 0 0 0 0 0 0 0 0 0 0 0 0 0 0 0 0 0 0 0 0 0 0 0 0 1 1 1 1
0 0 0 0 0 0 0 0 0 0 0 0 0 0 0 0 0 0 0 0 0 0 0 0 0 0 0 0 0 0 0 0 0 0 0 0 0 0 0 0 0 1 1 1
0 0 0 0 0 0 0 0 0 0 0 0 0 0 0 0 0 0 0 0 0 0 0 0 0 0 0 0 0 0 0 0 0 0 0 0 0 0 0 0 0 0 0 0
0 0 0 0 0 0 0 0 0 0 0 0 0 0 0 0 0 0 0 0 0 0 0 0 0 0 0 0 0 0 0 0 0 0 0 0 0 0 0 0 0 0 0 0
0 0 0 0 0 0 0 0 0 0 0 0 0 0 0 0 0 0 0 0 0 0 0 0 0 0 0 0 0 0 0 0 0 0 0 0 0 0 0 0 0 0 0 0
0 0 0 0 0 0 0 0 0 0 0 0 0 0 0 0 0 0 0 0 0 0 0 0 0 0 0 0 0 0 0 0 0 0 0 0 0 0 0 0 0 0 0 0
0 0 0 0 0 0 0 0 0 0 0 0 0 0 0 0 0 0 0 0 0 0 0 0 0 0 0 0 0 0 0 0 0 0 0 0 0 0 0 0 0 0 0 0
0 0 0 0 0 0 0 0 0 0 0 0 0 0 0 0 0 0 0 0 0 0 0 0 0 0 0 0 0 0 0 0 0 0 0 0 0 0 0 0 0 0 0 0
0 0 0 0 0 0 0 0 0 0 0 0 0 0 0 0 0 0 0 0 0 0 0 0 0 0 0 0 0 0 0 0 0 0 0 0 0 0 0 0 0 0 0 0
0 0 0 0 0 0 0 0 0 0 0 0 0 0 0 0 0 0 0 0 0 0 0 0 0 0 0 0 0 0 0 0 0 0 0 0 0 0 0 0 0 0 0 0
0 0 0 0 0 0 0 0 0 0 0 0 0 0 0 0 0 0 0 0 0 0 0 0 0 0 0 0 0 0 0 0 0 0 0 0 0 0 0 0 0 0 0 0
0 0 0 0 0 0 0 0 0 0 0 0 0 0 0 0 0 0 0 0 0 0 0 0 0 0 0 0 0 0 0 0 0 0 0 0 0 0 0 0 0 0 0 0
0 0 0 0 0 0 0 0 0 0 0 0 0 0 0 0 0 0 0 0 0 0 0 0 0 0 0 0 0 0 0 0 0 0 0 0 0 0 0 0 0 0 0 0
0 0 0 0 0 0 0 0 0 0 0 0 0 0 0 0 0 0 0 0 0 0 0 0 0 0 0 0 0 0 0 0 0 0 0 0 0 0 0 0 0 0 0 0
0 0 0 0 0 0 0 0 0 0 0 0 0 0 0 0 0 0 0 0 0 0 0 0 0 0 0 0 0 0 0 0 0 0 0 0 0 0 0 0 0 0 0 0
0 0 0 0 0 0 0 0 0 0 0 0 0 0 0 0 0 0 0 0 0 0 0 0 0 0 0 0 0 0 0 0 0 0 0 0 0 0 0 0 0 0 0 0
0 0 0 0 0 0 0 0 0 0 0 0 0 0 0 0 0 0 0 0 0 0 0 0 0 0 0 0 0 0 0 0 0 0 0 0 0 0 0 0 0 0 0 0
0 0 0 0 0 0 0 0 0 0 0 0 0 0 0 0 0 0 0 0 0 0 0 0 0 0 0 0 0 0 0 0 0 0 0 0 0 0 0 0 0 0 0 0
0 0 0 0 0 0 0 0 0 0 0 0 0 0 0 0 0 0 0 0 0 0 0 0 0 0 0 0 0 0 0 0 0 0 0 0 0 0 0 0 0 0 0 0
0 0 0 0 0 0 0 0 0 0 0 0 0 0 0 0 0 0 0 0 0 0 0 0 0 0 0 0 0 0 0 0 0 0 0 0 0 0 0 0 0 0 0 0
0 0 0 0 0 0 0 0 0 0 0 0 0 0 0 0 0 0 0 0 0 0 0 0 0 0 0 0 0 0 0 0 0 0 0 0 0 0 0 0 0 0 0 0
Wind_Speed
6 10 14 16 10 4 11 10 9 5 3 6 10 13 13 9 9 12 12 11 11 11 8 7 8 10 12 14 16 17 17 16 13 10 10 10 10 9 9 9 11 12 11 12
8 15 10 8 7 7 9 9 7 3 2 3 5 11 13 11 10 12 13 12 11 10 8 6 7 8 10 13 15 17 17 17 16 13 12 10 10 9 9 9 11 13 12 12
14 5 10 9 9 8 6 8 8 6 4 2 4 9 9 7 6 8 11 11 10 9 10 7 5 6 8 10 12 12 16 16 17 16 11 8 7 7 7 9 9 12 13 13
10 6 10 12 12 11 9 4 7 7 5 2 2 7 5 4 6 9 10 9 8 7 7 6 5 5 6 7 8 11 12 13 14 14 13 14 11 12 12 9 8 9 11 12
11 10 11 14 12 10 5 6 6 4 3 2 4 7 8 2 8 10 7 5 3 3 3 3 2 3 2 2 4 6 8 10 11 13 14 14 13 11 8 7 8 8 8 10
4 4 5 6 5 8 12 9 7 4 2 8 8 9 9 7 9 5 3 2 1 1 1 1 2 2 2 2 2 3 5 6 8 10 11 12 12 11 8 7 6 5 5 6
5 3 2 5 10 6 9 10 5 5 6 8 4 8 12 7 6 4 3 2 1 1 1 2 3 4 5 5 5 4 5 5 5 6 7 8 9 8 8 6 5 5 4 4
15 10 11 8 8 13 12 14 10 9 8 5 4 11 10 4 4 5 4 3 1 1 2 4 4 5 6 6 6 6 6 6 5 4 3 3 3 3 2 3 3 3 2 2
16 11 4 5 3 12 12 9 3 5 3 2 7 9 10 6 6 6 5 5 4 4 4 5 5 6 6 7 7 7 7 7 7 6 5 4 3 3 2 2 1 0 1 1
9 9 4 4 4 3 4 11 7 7 7 7 7 8 7 6 9 8 8 8 7 6 6 6 6 6 6 7 7 8 8 8 7 7 6 5 5 4 3 3 2 2 1 2
6 9 5 5 13 15 9 8 7 8 5 7 7 9 5 9 8 10 9 8 8 7 7 6 6 6 6 7 7 8 8 8 7 7 7 6 6 5 4 4 3 3 2 2
6 7 6 8 1 3 7 12 12 10 9 7 6 8 2 5 5 6 8 8 7 7 6 6 6 6 6 7 7 7 8 8 7 6 6 7 6 5 5 4 4 3 3 3
10 9 8 4 3 4 8 7 9 4 6 7 8 8 3 2 4 6 8 9 8 8 7 6 6 6 6 6 6 7 7 7 6 6 6 7 6 6 5 5 4 4 3 3
7 7 11 17 11 13 10 10 11 9 8 11 17 15 4 6 8 9 10 10 9 8 7 7 6 6 5 5 6 6 7 6 5 6 6 7 6 5 5 4 4 4 4 3
6 7 6 4 4 9 13 17 19 20 21 17 20 21 16 12 12 11 11 11 10 9 9 8 7 6 6 5 5 5 6 5 5 6 7 6 5 5 5 5 5 4 4 4
7 5 5 4 4 6 7 15 22 25 23 26 21 21 8 9 8 10 12 13 13 13 11 10 8 7 6 5 5 5 5 5 5 6 6 6 5 6 6 6 6 5 5 5
9 8 7 6 6 4 12 19 20 19 19 18 26 23 6 10 13 15 16 16 16 14 12 11 10 8 6 5 5 5 4 4 5 6 6 6 6 6 7 6 6 6 6 6
10 8 5 6 7 14 11 5 16 19 19 20 17 8 11 14 13 12 13 15 14 14 13 11 9 8 7 5 5 4 4 4 5 5 5 6 6 6 6 6 6 7 6 6
8 9 6 7 9 11 7 5 10 15 19 18 20 14 8 4 4 5 7 10 12 12 11 10 9 8 7 5 4 4 4 4 5 5 5 6 6 6 6 7 7 7 7 7
5 6 6 7 9 14 7 6 6 7 13 7 13 14 10 12 9 9 9 10 11 11 11 10 9 8 7 5 4 4 4 4 4 4 5 5 5 5 6 7 7 6 7 7
11 8 11 10 10 10 3 5 9 11 9 3 8 9 13 13 6 8 13 11 12 12 11 10 9 7 6 4 3 4 4 3 4 4 5 5 5 6 6 7 6 7 7 8
14 11 12 10 12 12 7 10 12 5 2 2 4 6 8 7 10 13 14 14 13 12 11 9 8 7 5 4 3 3 3 3 4 5 5 6 6 6 5 7 7 7 7 8
10 9 8 10 8 1 9 7 3 4 4 4 4 6 11 12 12 13 13 13 12 11 9 7 8 7 5 4 4 2 3 4 4 5 6 6 6 6 5 6 7 7 6 6
5 1 4 5 6 3 4 2 2 3 3 4 6 9 11 12 13 12 12 10 10 9 8 6 6 5 4 3 4 3 3 4 4 5 6 6 7 7 6 5 5 6 6 7
7 9 6 6 2 1 4 6 5 4 5 6 6 6 10 13 12 11 10 9 8 7 6 5 5 4 3 2 2 3 3 4 4 5 6 6 6 7 7 7 6 8 8 8
7 9 10 9 8 7 6 7 8 9 8 9 9 7 6 9 11 11 9 8 7 6 5 5 4 3 2 1 1 2 3 3 4 5 5 5 6 6 6 8 8 10 12 14
Wind_Direction
161 190 199 194 198 194 176 180 187 180 139 200 229 249 256 254 253 257 255 250 248 249 252 242 232 224 221 220 219 216 214 212 209 207 207 210 213 210 209 207 206 204 203 200
167 210 194 148 132 125 159 175 174 128 94 217 255 264 262 254 246 247 251 250 248 250 247 241 238 225 218 218 218 218 217 213 210 211 212 216 219 216 212 207 209 208 206 203
193 176 150 146 154 150 168 183 173 152 128 100 299 268 246 242 240 250 248 252 257 257 262 261 248 237 226 222 219 217 217 216 214 213 213 211 216 218 212 212 212 211 210 208
192 154 163 170 184 181 197 183 150 143 172 199 259 270 258 246 267 251 244 238 247 255 261 268 268 258 241 234 227 223 219 217 215 212 213 212 213 218 221 220 216 210 210 214
188 166 170 190 188 168 141 121 119 129 157 236 212 254 267 265 259 249 234 226 248 282 283 281 287 289 285 257 224 214 211 212 211 210 213 215 221 226 227 221 219 215 211 216
124 166 187 170 123 133 128 104 82 84 166 247 217 224 261 222 224 225 174 147 54 16 22 38 47 48 56 70 117 162 179 192 199 204 210 215 219 221 221 219 217 214 212 216
147 168 141 131 118 132 165 148 150 179 209 233 155 226 249 240 234 238 250 283 349 4 62 73 70 69 68 71 81 103 124 136 162 184 200 210 215 218 220 218 219 220 221 223
180 191 191 183 166 167 186 185 181 189 206 206 180 235 251 261 270 261 257 246 216 122 95 81 71 72 71 69 75 88 96 98 107 126 144 168 185 195 197 205 211 219 232 242
188 188 135 176 164 154 167 199 164 124 104 222 225 251 280 258 251 232 207 184 163 133 110 94 83 78 75 72 71 78 87 87 85 90 96 97 104 119 125 126 141 191 273 313
159 162 147 144 118 10 190 151 148 172 173 222 244 240 237 207 212 197 182 169 152 139 124 107 94 85 77 75 76 76 78 80 78 79 79 78 77 79 84 85 77 57 22 355
141 137 136 172 196 178 147 171 181 179 192 199 237 245 212 211 198 187 177 164 155 145 134 123 108 93 86 82 81 81 80 80 77 77 81 82 77 75 74 69 54 33 19 2
148 132 155 196 163 243 198 188 176 184 204 211 230 256 97 225 207 182 167 157 149 143 136 126 115 106 96 87 81 78 76 73 71 75 78 77 73 70 66 58 46 33 21 6
153 143 130 146 190 188 213 205 201 176 147 180 211 246 78 160 175 175 168 160 154 150 142 134 124 112 100 91 83 77 71 68 66 71 74 70 63 58 54 44 35 26 13 0
151 165 191 203 199 179 192 197 191 181 197 215 230 240 196 184 181 179 176 169 163 161 155 149 136 123 108 97 89 82 73 65 65 68 67 60 48 42 38 32 25 16 4 354
166 195 205 219 149 168 193 198 198 210 219 225 236 238 229 205 199 190 179 172 172 174 172 164 152 138 123 108 94 83 76 65 64 68 62 51 40 34 30 22 13 4 355 346
177 178 159 176 174 182 208 210 208 217 226 235 245 248 232 199 193 188 187 185 187 185 179 168 158 146 134 120 106 94 80 66 63 64 55 39 28 24 19 9 359 354 349 344
169 154 164 191 150 141 235 219 212 220 224 228 239 246 172 194 200 199 197 197 194 186 176 169 161 149 136 124 114 100 87 77 68 60 46 30 19 14 6 356 353 349 340 334
165 156 155 145 153 220 235 197 209 220 229 227 239 242 193 205 207 205 198 193 187 178 170 163 154 143 132 121 109 101 91 79 69 56 38 22 13 3 352 347 342 336 327 321
173 160 160 177 213 247 255 203 193 209 235 228 234 235 207 154 136 211 198 188 178 168 158 150 144 135 128 118 110 106 90 76 61 41 22 8 358 347 340 334 328 325 319 312
171 161 168 184 208 231 236 173 173 171 245 215 218 224 190 159 204 214 168 161 149 144 142 137 132 126 119 107 107 101 85 66 44 18 357 346 340 330 322 317 315 312 307 300
180 184 197 201 222 248 205 150 153 190 235 177 203 205 183 192 211 130 139 140 139 136 133 131 127 117 108 105 104 94 80 51 16 350 332 328 328 318 308 307 305 304 303 301
182 184 195 194 214 233 156 159 187 203 104 161 176 171 162 136 116 130 136 136 136 133 130 128 122 111 95 84 88 89 66 22 356 337 326 323 320 315 311 307 304 302 302 299
199 190 184 195 215 135 167 185 178 145 165 175 160 150 144 137 140 140 140 139 137 132 128 124 122 114 94 69 65 74 27 1 343 328 320 317 316 311 309 306 306 305 300 294
218 167 170 207 227 191 195 195 182 180 173 156 149 147 149 146 146 142 141 139 134 128 124 124 126 124 108 69 56 40 5 351 335 322 320 318 316 313 310 301 293 291 290 288
182 173 186 214 201 136 234 215 187 156 135 130 128 138 151 144 144 146 144 141 137 129 122 122 126 126 114 72 44 24 5 351 330 318 312 312 308 306 305 296 284 282 272 269
187 184 190 210 189 186 201 189 174 164 163 157 145 134 133 145 147 144 141 137 134 129 122 119 113 115 103 44 4 7 3 352 327 312 311 308 304 301 297 298 295 280 276 282